Time,TemperatureF,DewpointF,PressureIn,WindDirection,WindDirectionDegrees,WindSpeedMPH,WindSpeedGustMPH,Humidity,HourlyPrecipIn,Conditions,Clouds,dailyrainin,SoftwareType,DateUTC
2016-08-28 00:00:00,50.8,42.5,30.40,West,279,0.0,0.0,73,0.00,,,0.00,Wunderground v.1.15,2016-08-28 06:00:00,
2016-08-28 00:09:00,50.6,42.6,30.40,West,279,0.0,0.0,74,0.00,,,0.00,Wunderground v.1.15,2016-08-28 06:09:00,
2016-08-28 00:14:00,50.6,43.0,30.40,West,279,0.0,0.0,75,0.00,,,0.00,Wunderground v.1.15,2016-08-28 06:14:00,
2016-08-28 00:19:00,50.5,43.2,30.40,West,279,0.0,0.0,76,0.00,,,0.00,Wunderground v.1.15,2016-08-28 06:19:00,
2016-08-28 00:24:00,50.3,42.0,30.40,West,279,0.0,0.0,73,0.00,,,0.00,Wunderground v.1.15,2016-08-28 06:24:00,
2016-08-28 00:34:00,50.1,42.1,30.39,West,279,0.0,0.0,74,0.00,,,0.00,Wunderground v.1.15,2016-08-28 06:34:00,
2016-08-28 00:39:00,49.9,42.3,30.40,West,279,0.0,0.0,75,0.00,,,0.00,Wunderground v.1.15,2016-08-28 06:39:00,
2016-08-28 00:44:00,49.5,41.9,30.39,West,279,0.0,0.0,75,0.00,,,0.00,Wunderground v.1.15,2016-08-28 06:44:00,
2016-08-28 00:49:00,49.1,41.5,30.39,West,279,0.0,0.0,75,0.00,,,0.00,Wunderground v.1.15,2016-08-28 06:49:00,
2016-08-28 00:54:00,48.8,41.6,30.39,West,279,0.0,0.0,76,0.00,,,0.00,Wunderground v.1.15,2016-08-28 06:54:00,
2016-08-28 01:00:00,48.5,41.3,30.39,West,279,0.0,0.0,76,0.00,,,0.00,Wunderground v.1.15,2016-08-28 07:00:00,
2016-08-28 01:10:00,48.2,42.0,30.39,West,279,0.0,0.0,79,0.00,,,0.00,Wunderground v.1.15,2016-08-28 07:10:00,
2016-08-28 01:15:00,47.8,41.6,30.39,West,279,0.0,0.0,79,0.00,,,0.00,Wunderground v.1.15,2016-08-28 07:15:00,
2016-08-28 01:20:00,47.7,41.2,30.39,West,279,0.0,0.0,78,0.00,,,0.00,Wunderground v.1.15,2016-08-28 07:20:00,
2016-08-28 01:25:00,47.7,41.8,30.39,West,279,0.0,0.0,80,0.00,,,0.00,Wunderground v.1.15,2016-08-28 07:25:00,
2016-08-28 01:30:00,47.6,41.7,30.39,West,279,0.0,0.0,80,0.00,,,0.00,Wunderground v.1.15,2016-08-28 07:30:00,
2016-08-28 01:40:00,47.4,41.2,30.39,West,279,0.0,0.0,79,0.00,,,0.00,Wunderground v.1.15,2016-08-28 07:40:00,
2016-08-28 01:45:00,47.4,41.5,30.39,West,279,0.0,0.0,80,0.00,,,0.00,Wunderground v.1.15,2016-08-28 07:45:00,
2016-08-28 01:50:00,47.3,41.4,30.39,West,279,0.0,0.0,80,0.00,,,0.00,Wunderground v.1.15,2016-08-28 07:50:00,
2016-08-28 01:55:00,47.3,41.1,30.39,West,279,0.0,0.0,79,0.00,,,0.00,Wunderground v.1.15,2016-08-28 07:55:00,
2016-08-28 02:00:00,47.3,42.1,30.39,West,279,0.0,0.0,82,0.00,,,0.00,Wunderground v.1.15,2016-08-28 08:00:00,
2016-08-28 02:10:00,47.1,41.6,30.39,West,279,0.0,0.0,81,0.00,,,0.00,Wunderground v.1.15,2016-08-28 08:10:00,
2016-08-28 02:15:00,46.9,41.7,30.39,West,279,0.0,0.0,82,0.00,,,0.00,Wunderground v.1.15,2016-08-28 08:15:00,
2016-08-28 02:20:00,46.8,41.3,30.39,West,279,0.0,0.0,81,0.00,,,0.00,Wunderground v.1.15,2016-08-28 08:20:00,
2016-08-28 02:25:00,46.5,41.0,30.39,West,279,0.0,0.0,81,0.00,,,0.00,Wunderground v.1.15,2016-08-28 08:25:00,
2016-08-28 02:30:00,46.2,41.3,30.39,West,279,0.0,0.0,83,0.00,,,0.00,Wunderground v.1.15,2016-08-28 08:30:00,
2016-08-28 02:35:00,45.9,40.4,30.39,West,279,0.0,0.0,81,0.00,,,0.00,Wunderground v.1.15,2016-08-28 08:35:00,
2016-08-28 02:45:00,45.2,40.0,30.39,West,279,0.0,0.0,82,0.00,,,0.00,Wunderground v.1.15,2016-08-28 08:45:00,
2016-08-28 02:50:00,45.0,39.8,30.40,West,279,0.0,0.0,82,0.00,,,0.00,Wunderground v.1.15,2016-08-28 08:50:00,
2016-08-28 02:55:00,44.8,39.6,30.40,West,279,0.0,0.0,82,0.00,,,0.00,Wunderground v.1.15,2016-08-28 08:55:00,
2016-08-28 03:00:00,44.7,39.5,30.40,West,279,0.0,0.0,82,0.00,,,0.00,Wunderground v.1.15,2016-08-28 09:00:00,
2016-08-28 03:10:00,45.1,39.9,30.39,West,279,0.0,0.0,82,0.00,,,0.00,Wunderground v.1.15,2016-08-28 09:10:00,
2016-08-28 03:20:00,44.9,40.0,30.40,West,279,0.0,0.0,83,0.00,,,0.00,Wunderground v.1.15,2016-08-28 09:20:00,
2016-08-28 03:25:00,44.8,40.3,30.40,West,279,0.0,0.0,84,0.00,,,0.00,Wunderground v.1.15,2016-08-28 09:25:00,
2016-08-28 03:30:00,44.7,40.5,30.40,West,279,0.0,0.0,85,0.00,,,0.00,Wunderground v.1.15,2016-08-28 09:30:00,
2016-08-28 03:35:00,44.6,40.1,30.40,West,279,0.0,0.0,84,0.00,,,0.00,Wunderground v.1.15,2016-08-28 09:35:00,
2016-08-28 03:40:00,44.8,40.9,30.40,West,279,0.0,0.0,86,0.00,,,0.00,Wunderground v.1.15,2016-08-28 09:40:00,
2016-08-28 03:50:00,45.4,41.2,30.40,West,279,0.0,0.0,85,0.00,,,0.00,Wunderground v.1.15,2016-08-28 09:50:00,
2016-08-28 03:55:00,46.0,41.1,30.39,West,279,0.0,0.0,83,0.00,,,0.00,Wunderground v.1.15,2016-08-28 09:55:00,
2016-08-28 04:00:00,46.8,41.3,30.39,West,279,0.0,0.0,81,0.00,,,0.00,Wunderground v.1.15,2016-08-28 10:00:00,
2016-08-28 04:10:00,47.6,42.1,30.39,West,279,0.0,0.0,81,0.00,,,0.00,Wunderground v.1.15,2016-08-28 10:10:00,
2016-08-28 04:15:00,47.8,42.3,30.39,West,279,0.0,0.0,81,0.00,,,0.00,Wunderground v.1.15,2016-08-28 10:15:00,
2016-08-28 04:25:00,47.9,42.3,30.39,West,279,0.0,0.0,81,0.00,,,0.00,Wunderground v.1.15,2016-08-28 10:25:00,
2016-08-28 04:30:00,48.1,42.2,30.39,West,279,0.0,0.0,80,0.00,,,0.00,Wunderground v.1.15,2016-08-28 10:30:00,
2016-08-28 04:35:00,48.3,41.4,30.39,West,279,0.0,0.0,77,0.00,,,0.00,Wunderground v.1.15,2016-08-28 10:35:00,
2016-08-28 04:40:00,48.6,41.4,30.39,West,279,0.0,0.0,76,0.00,,,0.00,Wunderground v.1.15,2016-08-28 10:40:00,
2016-08-28 04:45:00,48.9,41.0,30.39,West,279,0.0,0.0,74,0.00,,,0.00,Wunderground v.1.15,2016-08-28 10:45:00,
2016-08-28 04:50:00,49.2,41.3,30.39,West,279,0.0,0.0,74,0.00,,,0.00,Wunderground v.1.15,2016-08-28 10:50:00,
2016-08-28 04:55:00,49.4,41.5,30.39,West,279,0.0,0.0,74,0.00,,,0.00,Wunderground v.1.15,2016-08-28 10:55:00,
2016-08-28 05:00:00,49.5,41.6,30.39,West,279,0.0,0.0,74,0.00,,,0.00,Wunderground v.1.15,2016-08-28 11:00:00,
2016-08-28 05:10:00,49.6,41.7,30.39,West,279,0.0,0.0,74,0.00,,,0.00,Wunderground v.1.15,2016-08-28 11:10:00,
2016-08-28 05:15:00,49.7,41.4,30.39,West,279,0.0,0.0,73,0.00,,,0.00,Wunderground v.1.15,2016-08-28 11:15:00,
2016-08-28 05:20:00,49.8,41.1,30.39,West,279,0.0,0.0,72,0.00,,,0.00,Wunderground v.1.15,2016-08-28 11:20:00,
2016-08-28 05:25:00,50.0,41.3,30.39,West,279,0.0,1.0,72,0.00,,,0.00,Wunderground v.1.15,2016-08-28 11:25:00,
2016-08-28 05:30:00,50.2,42.6,30.39,West,279,0.0,0.0,75,0.00,,,0.00,Wunderground v.1.15,2016-08-28 11:30:00,
2016-08-28 05:35:00,50.1,41.8,30.39,West,279,0.0,0.0,73,0.00,,,0.00,Wunderground v.1.15,2016-08-28 11:35:00,
2016-08-28 05:40:00,50.0,42.4,30.39,West,279,0.0,0.0,75,0.00,,,0.00,Wunderground v.1.15,2016-08-28 11:40:00,
2016-08-28 05:45:00,49.8,42.2,30.39,West,279,0.0,0.0,75,0.00,,,0.00,Wunderground v.1.15,2016-08-28 11:45:00,
2016-08-28 05:50:00,49.7,42.4,30.39,West,279,0.0,0.0,76,0.00,,,0.00,Wunderground v.1.15,2016-08-28 11:50:00,
2016-08-28 06:05:00,49.7,41.7,30.39,West,279,0.0,0.0,74,0.00,,,0.00,Wunderground v.1.15,2016-08-28 12:05:00,
2016-08-28 06:10:00,49.8,41.5,30.40,West,279,0.0,0.0,73,0.00,,,0.00,Wunderground v.1.15,2016-08-28 12:10:00,
2016-08-28 06:15:00,49.9,41.6,30.39,West,279,0.0,0.0,73,0.00,,,0.00,Wunderground v.1.15,2016-08-28 12:15:00,
2016-08-28 06:20:00,50.2,41.5,30.40,West,279,0.0,0.0,72,0.00,,,0.00,Wunderground v.1.15,2016-08-28 12:20:00,
2016-08-28 06:30:00,50.6,41.2,30.40,West,279,0.0,0.0,70,0.00,,,0.00,Wunderground v.1.15,2016-08-28 12:30:00,
2016-08-28 06:35:00,50.9,41.8,30.40,West,279,0.0,1.0,71,0.00,,,0.00,Wunderground v.1.15,2016-08-28 12:35:00,
2016-08-28 06:40:00,51.0,41.2,30.41,West,279,0.0,1.0,69,0.00,,,0.00,Wunderground v.1.15,2016-08-28 12:40:00,
2016-08-28 06:45:00,51.0,41.9,30.41,West,278,0.0,1.0,71,0.00,,,0.00,Wunderground v.1.15,2016-08-28 12:45:00,
2016-08-28 06:50:00,50.8,41.4,30.41,West,278,0.0,1.0,70,0.00,,,0.00,Wunderground v.1.15,2016-08-28 12:50:00,
2016-08-28 06:55:00,50.7,42.0,30.41,West,278,0.0,1.0,72,0.00,,,0.00,Wunderground v.1.15,2016-08-28 12:55:00,
2016-08-28 07:00:00,50.6,41.9,30.41,West,278,0.0,0.0,72,0.00,,,0.00,Wunderground v.1.15,2016-08-28 13:00:00,
2016-08-28 07:10:00,50.5,41.4,30.42,West,278,0.0,0.0,71,0.00,,,0.00,Wunderground v.1.15,2016-08-28 13:10:00,
2016-08-28 07:15:00,50.5,42.2,30.42,West,278,0.0,0.0,73,0.00,,,0.00,Wunderground v.1.15,2016-08-28 13:15:00,
2016-08-28 07:20:00,50.5,42.2,30.42,West,278,0.0,0.0,73,0.00,,,0.00,Wunderground v.1.15,2016-08-28 13:20:00,
2016-08-28 07:25:00,50.4,42.4,30.43,West,278,0.0,0.0,74,0.00,,,0.00,Wunderground v.1.15,2016-08-28 13:25:00,
2016-08-28 07:35:00,50.3,42.7,30.43,West,278,0.0,2.0,75,0.00,,,0.00,Wunderground v.1.15,2016-08-28 13:35:00,
2016-08-28 07:40:00,50.3,43.0,30.44,West,278,0.0,2.0,76,0.00,,,0.00,Wunderground v.1.15,2016-08-28 13:40:00,
2016-08-28 07:45:00,50.2,42.9,30.44,West,278,0.0,2.0,76,0.00,,,0.00,Wunderground v.1.15,2016-08-28 13:45:00,
2016-08-28 07:50:00,50.1,42.8,30.44,West,278,0.0,2.0,76,0.00,,,0.00,Wunderground v.1.15,2016-08-28 13:50:00,
2016-08-28 07:55:00,50.1,43.5,30.44,West,278,0.0,2.0,78,0.00,,,0.00,Wunderground v.1.15,2016-08-28 13:55:00,
2016-08-28 08:00:00,50.1,44.2,30.44,West,278,0.0,0.0,80,0.00,,,0.00,Wunderground v.1.15,2016-08-28 14:00:00,
2016-08-28 08:10:00,50.3,45.0,30.44,West,278,0.0,0.0,82,0.00,,,0.00,Wunderground v.1.15,2016-08-28 14:10:00,
2016-08-28 08:15:00,50.6,45.3,30.44,West,278,0.0,0.0,82,0.00,,,0.00,Wunderground v.1.15,2016-08-28 14:15:00,
2016-08-28 08:20:00,51.0,44.0,30.44,West,278,0.0,0.0,77,0.00,,,0.00,Wunderground v.1.15,2016-08-28 14:20:00,
2016-08-28 08:25:00,52.2,44.5,30.44,West,278,0.0,0.0,75,0.00,,,0.00,Wunderground v.1.15,2016-08-28 14:25:00,
2016-08-28 08:30:00,53.6,44.0,30.44,West,278,0.0,0.0,70,0.00,,,0.00,Wunderground v.1.15,2016-08-28 14:30:00,
2016-08-28 08:35:00,55.3,43.7,30.44,West,278,0.0,0.0,65,0.00,,,0.00,Wunderground v.1.15,2016-08-28 14:35:00,
2016-08-28 08:40:00,56.9,43.6,30.44,West,278,0.0,0.0,61,0.00,,,0.00,Wunderground v.1.15,2016-08-28 14:40:00,
2016-08-28 08:50:00,59.4,44.6,30.44,West,278,0.0,0.0,58,0.00,,,0.00,Wunderground v.1.15,2016-08-28 14:50:00,
2016-08-28 08:55:00,60.0,43.8,30.44,SW,227,0.0,0.0,55,0.00,,,0.00,Wunderground v.1.15,2016-08-28 14:55:00,
2016-08-28 09:00:00,60.3,43.6,30.45,SW,227,0.0,0.0,54,0.00,,,0.00,Wunderground v.1.15,2016-08-28 15:00:00,
2016-08-28 09:10:00,60.7,43.9,30.45,SW,227,1.0,1.0,54,0.00,,,0.00,Wunderground v.1.15,2016-08-28 15:10:00,
2016-08-28 09:15:00,61.1,43.8,30.44,SW,227,0.0,1.0,53,0.00,,,0.00,Wunderground v.1.15,2016-08-28 15:15:00,
2016-08-28 09:20:00,61.6,43.3,30.44,SW,228,0.0,0.0,51,0.00,,,0.00,Wunderground v.1.15,2016-08-28 15:20:00,
2016-08-28 09:25:00,61.9,44.1,30.45,NW,319,1.0,1.0,52,0.00,,,0.00,Wunderground v.1.15,2016-08-28 15:25:00,
2016-08-28 09:30:00,61.7,44.9,30.45,SW,230,1.0,1.0,54,0.00,,,0.00,Wunderground v.1.15,2016-08-28 15:30:00,
2016-08-28 09:35:00,61.6,44.3,30.44,West,262,1.0,1.0,53,0.00,,,0.00,Wunderground v.1.15,2016-08-28 15:35:00,
2016-08-28 09:40:00,61.5,44.7,30.44,WNW,301,1.0,2.0,54,0.00,,,0.00,Wunderground v.1.15,2016-08-28 15:40:00,
2016-08-28 09:50:00,60.8,45.0,30.45,North,4,2.0,2.0,56,0.00,,,0.00,Wunderground v.1.15,2016-08-28 15:50:00,
2016-08-28 09:55:00,60.9,44.6,30.45,NNW,344,2.0,5.0,55,0.00,,,0.00,Wunderground v.1.15,2016-08-28 15:55:00,
2016-08-28 10:00:00,61.1,44.3,30.45,SW,221,1.0,1.0,54,0.00,,,0.00,Wunderground v.1.15,2016-08-28 16:00:00,
2016-08-28 10:10:00,61.7,43.4,30.44,NNW,341,1.0,2.0,51,0.00,,,0.00,Wunderground v.1.15,2016-08-28 16:10:00,
2016-08-28 10:20:00,61.6,43.3,30.44,North,4,2.0,3.0,51,0.00,,,0.00,Wunderground v.1.15,2016-08-28 16:20:00,
2016-08-28 10:25:00,61.7,43.9,30.44,NNW,335,1.0,3.0,52,0.00,,,0.00,Wunderground v.1.15,2016-08-28 16:25:00,
2016-08-28 10:30:00,62.3,43.9,30.45,North,349,1.0,1.0,51,0.00,,,0.00,Wunderground v.1.15,2016-08-28 16:30:00,
2016-08-28 10:35:00,62.8,43.3,30.44,SW,220,1.0,7.0,49,0.00,,,0.00,Wunderground v.1.15,2016-08-28 16:35:00,
2016-08-28 10:40:00,62.8,43.3,30.45,North,359,1.0,1.0,49,0.00,,,0.00,Wunderground v.1.15,2016-08-28 16:40:00,
2016-08-28 10:45:00,63.1,43.1,30.45,NW,320,2.0,3.0,48,0.00,,,0.00,Wunderground v.1.15,2016-08-28 16:45:00,
2016-08-28 10:55:00,63.2,43.2,30.45,WNW,283,2.0,7.0,48,0.00,,,0.00,Wunderground v.1.15,2016-08-28 16:55:00,
2016-08-28 11:00:00,63.6,43.5,30.45,WNW,285,2.0,2.0,48,0.00,,,0.00,Wunderground v.1.15,2016-08-28 17:00:00,
2016-08-28 11:10:00,64.2,43.0,30.45,NNW,332,2.0,2.0,46,0.00,,,0.00,Wunderground v.1.15,2016-08-28 17:10:00,
2016-08-28 11:15:00,64.3,43.1,30.45,WNW,299,2.0,6.0,46,0.00,,,0.00,Wunderground v.1.15,2016-08-28 17:15:00,
2016-08-28 11:25:00,65.0,43.1,30.45,North,359,2.0,4.0,45,0.00,,,0.00,Wunderground v.1.15,2016-08-28 17:25:00,
2016-08-28 11:30:00,65.1,43.8,30.45,NNW,337,2.0,4.0,46,0.00,,,0.00,Wunderground v.1.15,2016-08-28 17:30:00,
2016-08-28 11:35:00,65.4,42.3,30.45,SW,236,1.0,7.0,43,0.00,,,0.00,Wunderground v.1.15,2016-08-28 17:35:00,
2016-08-28 11:40:00,65.5,42.4,30.45,NNE,31,1.0,1.0,43,0.00,,,0.00,Wunderground v.1.15,2016-08-28 17:40:00,
2016-08-28 11:45:00,65.9,42.8,30.44,North,10,1.0,3.0,43,0.00,,,0.00,Wunderground v.1.15,2016-08-28 17:45:00,
2016-08-28 11:50:00,65.8,41.4,30.44,WNW,293,2.0,2.0,41,0.00,,,0.00,Wunderground v.1.15,2016-08-28 17:50:00,
2016-08-28 12:00:00,66.4,42.0,30.44,NW,304,2.0,2.0,41,0.00,,,0.00,Wunderground v.1.15,2016-08-28 18:00:00,
2016-08-28 12:10:00,66.7,40.9,30.43,WSW,254,1.0,1.0,39,0.00,,,0.00,Wunderground v.1.15,2016-08-28 18:10:00,
2016-08-28 12:15:00,66.8,42.3,30.43,NNW,337,1.0,1.0,41,0.00,,,0.00,Wunderground v.1.15,2016-08-28 18:15:00,
2016-08-28 12:20:00,66.7,42.2,30.43,North,349,1.0,1.0,41,0.00,,,0.00,Wunderground v.1.15,2016-08-28 18:20:00,
2016-08-28 12:30:00,67.1,41.3,30.43,WNW,297,1.0,4.0,39,0.00,,,0.00,Wunderground v.1.15,2016-08-28 18:30:00,
2016-08-28 12:40:00,67.5,41.0,30.43,West,266,2.0,2.0,38,0.00,,,0.00,Wunderground v.1.15,2016-08-28 18:40:00,
2016-08-28 12:45:00,67.8,41.9,30.43,NNW,338,1.0,12.0,39,0.00,,,0.00,Wunderground v.1.15,2016-08-28 18:45:00,
2016-08-28 12:50:00,68.1,39.4,30.43,NNW,332,1.0,1.0,35,0.00,,,0.00,Wunderground v.1.15,2016-08-28 18:50:00,
2016-08-28 12:55:00,68.5,40.5,30.42,NNW,330,0.0,12.0,36,0.00,,,0.00,Wunderground v.1.15,2016-08-28 18:55:00,
2016-08-28 13:00:00,69.0,38.7,30.42,SW,233,1.0,1.0,33,0.00,,,0.00,Wunderground v.1.15,2016-08-28 19:00:00,
2016-08-28 13:10:00,68.6,38.3,30.42,WNW,297,1.0,1.0,33,0.00,,,0.00,Wunderground v.1.15,2016-08-28 19:10:00,
2016-08-28 13:15:00,68.1,39.4,30.42,North,1,1.0,1.0,35,0.00,,,0.00,Wunderground v.1.15,2016-08-28 19:15:00,
2016-08-28 13:20:00,67.9,37.7,30.42,North,1,1.0,1.0,33,0.00,,,0.00,Wunderground v.1.15,2016-08-28 19:20:00,
2016-08-28 13:25:00,68.2,38.0,30.42,North,360,1.0,3.0,33,0.00,,,0.00,Wunderground v.1.15,2016-08-28 19:25:00,
2016-08-28 13:30:00,68.7,40.7,30.42,South,174,1.0,1.0,36,0.00,,,0.00,Wunderground v.1.15,2016-08-28 19:30:00,
2016-08-28 13:35:00,69.2,38.9,30.42,South,175,2.0,2.0,33,0.00,,,0.00,Wunderground v.1.15,2016-08-28 19:35:00,
2016-08-28 13:50:00,70.2,40.5,30.41,SSW,194,2.0,2.0,34,0.00,,,0.00,Wunderground v.1.15,2016-08-28 19:50:00,
2016-08-28 14:00:00,70.6,38.5,30.41,West,267,2.0,2.0,31,0.00,,,0.00,Wunderground v.1.15,2016-08-28 20:00:00,
2016-08-28 14:10:00,70.0,38.0,30.40,South,173,2.0,2.0,31,0.00,,,0.00,Wunderground v.1.15,2016-08-28 20:10:00,
2016-08-28 14:15:00,70.0,38.8,30.40,South,174,2.0,2.0,32,0.00,,,0.00,Wunderground v.1.15,2016-08-28 20:15:00,
2016-08-28 14:20:00,70.3,39.0,30.40,SSE,165,2.0,6.0,32,0.00,,,0.00,Wunderground v.1.15,2016-08-28 20:20:00,
2016-08-28 14:30:00,71.0,40.4,30.39,SSE,159,1.0,1.0,33,0.00,,,0.00,Wunderground v.1.15,2016-08-28 20:30:00,
2016-08-28 14:35:00,71.8,40.3,30.39,SSE,159,0.0,6.0,32,0.00,,,0.00,Wunderground v.1.15,2016-08-28 20:35:00,
2016-08-28 14:40:00,72.3,40.0,30.39,SSW,199,1.0,6.0,31,0.00,,,0.00,Wunderground v.1.15,2016-08-28 20:40:00,
2016-08-28 14:45:00,71.9,38.8,30.39,NNW,346,1.0,6.0,30,0.00,,,0.00,Wunderground v.1.15,2016-08-28 20:45:00,
2016-08-28 14:50:00,71.5,38.4,30.39,South,190,1.0,1.0,30,0.00,,,0.00,Wunderground v.1.15,2016-08-28 20:50:00,
2016-08-28 15:00:00,71.7,39.4,30.39,East,86,1.0,3.0,31,0.00,,,0.00,Wunderground v.1.15,2016-08-28 21:00:00,
2016-08-28 15:10:00,71.6,36.8,30.38,ESE,118,2.0,2.0,28,0.00,,,0.00,Wunderground v.1.15,2016-08-28 21:10:00,
2016-08-28 15:15:00,71.7,36.8,30.38,WSW,256,1.0,2.0,28,0.00,,,0.00,Wunderground v.1.15,2016-08-28 21:15:00,
2016-08-28 15:20:00,71.7,38.6,30.38,WSW,245,0.0,3.0,30,0.00,,,0.00,Wunderground v.1.15,2016-08-28 21:20:00,
2016-08-28 15:25:00,72.2,37.3,30.38,East,80,1.0,3.0,28,0.00,,,0.00,Wunderground v.1.15,2016-08-28 21:25:00,
2016-08-28 15:30:00,72.2,36.3,30.38,ENE,60,1.0,1.0,27,0.00,,,0.00,Wunderground v.1.15,2016-08-28 21:30:00,
2016-08-28 15:35:00,72.6,36.7,30.37,SSE,158,1.0,4.0,27,0.00,,,0.00,Wunderground v.1.15,2016-08-28 21:35:00,
2016-08-28 15:40:00,72.8,36.9,30.37,SSE,157,2.0,2.0,27,0.00,,,0.00,Wunderground v.1.15,2016-08-28 21:40:00,
2016-08-28 15:45:00,72.9,37.9,30.37,SSE,163,2.0,11.0,28,0.00,,,0.00,Wunderground v.1.15,2016-08-28 21:45:00,